TimeCDT,TemperatureF,Dew PointF,Humidity,Sea Level PressureIn,VisibilityMPH,Wind Direction,Wind SpeedMPH,Gust SpeedMPH,PrecipitationIn,Events,Conditions,WindDirDegrees,DateUTC
12:14 AM,42.8,42.8,100,29.45,3.0,North,25.3,34.5,N/A,,Light Drizzle,10,2012-10-19 05:14:00
12:34 AM,42.8,42.8,100,29.46,7.0,North,25.3,39.1,N/A,,Overcast,360,2012-10-19 05:34:00
12:55 AM,42.8,42.8,100,29.47,7.0,North,29.9,38.0,N/A,,Overcast,10,2012-10-19 05:55:00
1:14 AM,42.8,42.8,100,29.48,7.0,North,25.3,36.8,N/A,,Overcast,10,2012-10-19 06:14:00
1:34 AM,42.8,42.8,100,29.49,10.0,North,26.5,34.5,N/A,,Overcast,10,2012-10-19 06:34:00
1:55 AM,42.8,42.8,100,29.50,10.0,North,25.3,36.8,N/A,,Overcast,10,2012-10-19 06:55:00
2:14 AM,42.8,42.8,100,29.51,10.0,North,27.6,36.8,N/A,,Overcast,10,2012-10-19 07:14:00
2:34 AM,42.8,42.8,100,29.51,10.0,North,28.8,34.5,N/A,,Overcast,10,2012-10-19 07:34:00
2:54 AM,41.0,41.0,100,29.53,10.0,North,25.3,32.2,N/A,,Overcast,10,2012-10-19 07:54:00
3:15 AM,41.0,41.0,100,29.53,10.0,North,21.9,32.2,N/A,,Overcast,10,2012-10-19 08:15:00
3:34 AM,41.0,41.0,100,29.54,5.0,North,21.9,34.5,N/A,,Overcast,10,2012-10-19 08:34:00
3:54 AM,41.0,41.0,100,29.55,5.0,North,23.0,34.5,N/A,,Overcast,10,2012-10-19 08:54:00
4:15 AM,41.0,41.0,100,29.55,4.0,North,20.7,31.1,N/A,,Overcast,10,2012-10-19 09:15:00
4:34 AM,41.0,41.0,100,29.56,5.0,North,18.4,29.9,N/A,,Overcast,10,2012-10-19 09:34:00
4:54 AM,41.0,41.0,100,29.57,5.0,North,18.4,31.1,N/A,,Overcast,10,2012-10-19 09:54:00
5:15 AM,41.0,41.0,100,29.58,7.0,North,18.4,28.8,N/A,,Overcast,10,2012-10-19 10:15:00
5:34 AM,41.0,41.0,100,29.58,10.0,North,23.0,29.9,N/A,,Overcast,10,2012-10-19 10:34:00
5:54 AM,41.0,41.0,100,29.58,10.0,North,20.7,29.9,N/A,,Overcast,10,2012-10-19 10:54:00
6:14 AM,41.0,41.0,100,29.59,10.0,North,24.2,31.1,N/A,,Overcast,10,2012-10-19 11:14:00
6:34 AM,41.0,41.0,100,29.60,5.0,North,21.9,29.9,N/A,,Overcast,360,2012-10-19 11:34:00
6:54 AM,41.0,41.0,100,29.60,10.0,North,23.0,32.2,N/A,,Overcast,10,2012-10-19 11:54:00
7:14 AM,41.0,41.0,100,29.61,10.0,North,23.0,31.1,N/A,,Overcast,10,2012-10-19 12:14:00
7:34 AM,41.0,41.0,100,29.61,10.0,North,27.6,36.8,N/A,,Overcast,360,2012-10-19 12:34:00
7:54 AM,41.0,41.0,100,29.62,10.0,North,20.7,34.5,N/A,,Overcast,360,2012-10-19 12:54:00
8:14 AM,41.0,41.0,100,29.63,10.0,North,24.2,40.3,N/A,,Overcast,360,2012-10-19 13:14:00
8:34 AM,41.0,41.0,100,29.64,10.0,North,20.7,34.5,N/A,,Overcast,360,2012-10-19 13:34:00
8:54 AM,41.0,41.0,100,29.64,10.0,North,24.2,32.2,N/A,,Overcast,360,2012-10-19 13:54:00
9:14 AM,41.0,41.0,100,29.66,10.0,North,24.2,33.4,N/A,,Overcast,360,2012-10-19 14:14:00
9:34 AM,39.2,39.2,100,29.67,10.0,North,19.6,31.1,N/A,,Overcast,360,2012-10-19 14:34:00
9:54 AM,39.2,39.2,100,29.67,10.0,North,20.7,26.5,N/A,,Light Drizzle,360,2012-10-19 14:54:00
10:14 AM,39.2,39.2,100,29.68,10.0,North,18.4,28.8,N/A,,Overcast,360,2012-10-19 15:14:00
10:34 AM,39.2,39.2,100,29.69,7.0,North,18.4,25.3,N/A,Rain,Light Rain,360,2012-10-19 15:34:00
10:54 AM,39.2,39.2,100,29.69,10.0,North,18.4,27.6,N/A,Rain,Rain,10,2012-10-19 15:54:00
11:14 AM,41.0,41.0,100,29.70,5.0,North,20.7,26.5,N/A,,Drizzle,360,2012-10-19 16:14:00
11:34 AM,41.0,41.0,100,29.70,7.0,North,15.0,28.8,N/A,,Drizzle,360,2012-10-19 16:34:00
11:54 AM,41.0,41.0,100,29.71,7.0,North,16.1,25.3,N/A,Rain,Light Rain,360,2012-10-19 16:54:00
12:14 PM,41.0,41.0,100,29.71,7.0,North,18.4,25.3,N/A,,Drizzle,360,2012-10-19 17:14:00
12:34 PM,41.0,41.0,100,29.71,10.0,North,15.0,25.3,0.01,Rain,Light Rain,360,2012-10-19 17:34:00
12:54 PM,41.0,41.0,100,29.71,7.0,North,18.4,24.2,0.02,Rain,Light Rain,10,2012-10-19 17:54:00
1:14 PM,42.8,42.8,100,29.71,7.0,North,17.3,23.0,N/A,Rain,Light Rain,360,2012-10-19 18:14:00
1:34 PM,42.8,42.8,100,29.71,10.0,North,16.1,25.3,N/A,,Drizzle,360,2012-10-19 18:34:00
1:54 PM,42.8,42.8,100,29.70,7.0,North,17.3,23.0,N/A,,Drizzle,10,2012-10-19 18:54:00
2:14 PM,42.8,42.8,100,29.71,10.0,North,15.0,25.3,N/A,,Drizzle,360,2012-10-19 19:14:00
2:34 PM,42.8,42.8,100,29.71,7.0,North,17.3,21.9,N/A,,Drizzle,10,2012-10-19 19:34:00
2:54 PM,42.8,42.8,100,29.71,10.0,North,17.3,21.9,N/A,,Overcast,360,2012-10-19 19:54:00
3:14 PM,42.8,42.8,100,29.71,10.0,North,16.1,21.9,N/A,,Overcast,10,2012-10-19 20:14:00
3:34 PM,42.8,42.8,100,29.71,10.0,North,11.5,-,N/A,,Overcast,360,2012-10-19 20:34:00
3:54 PM,42.8,42.8,100,29.71,10.0,North,12.7,17.3,N/A,,Overcast,360,2012-10-19 20:54:00
4:14 PM,42.8,42.8,100,29.72,10.0,North,11.5,-,N/A,,Overcast,360,2012-10-19 21:14:00
4:34 PM,42.8,42.8,100,29.72,10.0,North,10.4,-,N/A,,Overcast,350,2012-10-19 21:34:00
4:54 PM,42.8,42.8,100,29.73,7.0,North,12.7,-,N/A,,Overcast,350,2012-10-19 21:54:00
5:14 PM,42.8,42.8,100,29.74,4.0,North,12.7,18.4,N/A,,Overcast,360,2012-10-19 22:14:00
5:34 PM,42.8,42.8,100,29.74,2.0,North,10.4,-,N/A,,Overcast,360,2012-10-19 22:34:00
5:54 PM,42.8,42.8,100,29.75,3.0,North,10.4,-,N/A,,Overcast,350,2012-10-19 22:54:00
6:14 PM,42.8,42.8,100,29.75,3.0,North,8.1,-,N/A,,Overcast,350,2012-10-19 23:14:00
6:34 PM,42.8,42.8,100,29.75,5.0,North,9.2,-,N/A,,Overcast,360,2012-10-19 23:34:00
6:54 PM,42.8,42.8,100,29.76,3.0,North,6.9,-,N/A,,Overcast,360,2012-10-19 23:54:00
7:14 PM,42.8,42.8,100,29.75,7.0,North,6.9,-,N/A,,Overcast,10,2012-10-20 00:14:00
7:34 PM,41.0,41.0,100,29.76,10.0,NNW,5.8,-,N/A,,Overcast,340,2012-10-20 00:34:00
7:54 PM,42.8,42.8,100,29.76,10.0,NNW,6.9,-,N/A,,Overcast,340,2012-10-20 00:54:00
8:14 PM,42.8,42.8,100,29.77,10.0,NNW,6.9,-,N/A,,Overcast,340,2012-10-20 01:14:00
8:34 PM,42.8,42.8,100,29.77,10.0,NNW,6.9,-,N/A,,Overcast,340,2012-10-20 01:34:00
8:54 PM,42.8,42.8,100,29.77,10.0,NNW,5.8,-,N/A,,Overcast,340,2012-10-20 01:54:00
9:14 PM,41.0,41.0,100,29.76,10.0,North,5.8,-,N/A,,Overcast,10,2012-10-20 02:14:00
9:34 PM,41.0,41.0,100,29.76,10.0,North,5.8,-,N/A,,Overcast,350,2012-10-20 02:34:00
9:54 PM,41.0,41.0,100,29.76,10.0,NNW,5.8,-,N/A,,Overcast,340,2012-10-20 02:54:00
10:15 PM,41.0,41.0,100,29.76,10.0,North,4.6,-,N/A,,Overcast,350,2012-10-20 03:15:00
10:34 PM,41.0,41.0,100,29.77,10.0,NNW,3.5,-,N/A,,Overcast,340,2012-10-20 03:34:00
10:54 PM,41.0,41.0,100,29.77,10.0,NW,3.5,-,N/A,,Overcast,310,2012-10-20 03:54:00
11:14 PM,41.0,41.0,100,29.77,10.0,Calm,Calm,-,N/A,,Overcast,0,2012-10-20 04:14:00
11:34 PM,41.0,41.0,100,29.77,10.0,NW,3.5,-,N/A,,Overcast,320,2012-10-20 04:34:00
11:54 PM,41.0,41.0,100,29.77,10.0,NW,4.6,-,N/A,,Overcast,310,2012-10-20 04:54:00